Regional Weather Roundup
Issued by NWS

Home | Current Version | Previous Version | Text Only | Print | Product List | Glossary Off
Versions: 1 2 3 4 5 6 7 8 9 10 11 12 13 14 15 16 17 18 19 20 21 22 23 24 25 26 27 28 29 30 31 32 33 34 35 36 37 38 39 40 41 42 43 44 45 46 47 48 49 50

000
ASUS43 KLSX 211607
RWRMO

WEATHER SUMMARY FOR MISSOURI
NATIONAL WEATHER SERVICE SPRINGFIELD MO
1100 AM CDT SAT OCT 21 2017

NOTE: "FAIR" INDICATES FEW OR NO CLOUDS BELOW 12,000 FEET WITH NO
       SIGNIFICANT WEATHER AND/OR OBSTRUCTIONS TO VISIBILITY.
       CURRENT SKY AND/OR WEATHER CONDITIONS ARE NOT AVAILABLE FOR
       CHILLICOTHE AND FARMINGTON.

MOZ001>031-035>038-043-044-053-054-211700-
...NORTHERN AND WESTERN MISSOURI...

CITY           SKY/WX    TMP DP  RH WIND       PRES   REMARKS
KANSAS CTY INT CLOUDY    67  61  81 S21G28    29.83R
KANSAS C DTWN  CLOUDY    70  62  76 S17G29    29.85S
LEE`S SUMMIT   CLOUDY    69  62  78 S18G31    29.86F
ST JOSEPH      LGT RAIN  69  62  78 S17G30    29.79S
CHILLICOTHE      N/A     70  61  73 S14G25    29.87F
KIRKSVILLE     MOSUNNY   73  62  68 S18G29    29.93S

$$
MOZ066>068-077>081-088>096-101>105-211700-
...SOUTHWEST MISSOURI...

CITY           SKY/WX    TMP DP  RH WIND       PRES   REMARKS
SPRINGFIELD    SUNNY     73  62  68 S16G28    29.98F
JOPLIN         MOSUNNY   72  64  76 S18G26    29.92S
BRANSON        CLOUDY    68  63  83 E7        30.04S

$$
MOZ032>034-039>042-045>050-055>058-069>072-211700-
...CENTRAL MISSOURI...

CITY           SKY/WX    TMP DP  RH WIND       PRES   REMARKS
COLUMBIA       SUNNY     73  62  68 S15G28    29.98S
JEFFERSON CITY PTSUNNY   73  60  63 S13G24    29.98S
ROLLA          CLOUDY    70  62  76 S16G24    30.04R
SEDALIA        SUNNY     75  63  66 S23G30    29.94S
WHITEMAN AFB   PTSUNNY   70  61  72 S18G26    29.87S
WARRENSBURG    SUNNY     72  61  68 S20G26    29.89S
OSAGE BEACH    MOSUNNY   73  62  68 S20G25    29.99F

$$
MOZ051-052-059>065-211700-
...EAST CENTRAL MISSOURI...

CITY           SKY/WX    TMP DP  RH WIND       PRES   REMARKS
ST LOUIS INTL  CLOUDY    67  59  75 S14       30.07R
SPIRIT OF STL  CLOUDY    68  60  75 VRB6      30.04S
ST CHARLES     CLOUDY    69  58  67 S13       30.05S

$$
MOZ072>076-082>087-097>100-106>115-211700-
...SOUTH CENTRAL AND SOUTHEAST MISSOURI...

CITY           SKY/WX    TMP DP  RH WIND       PRES   REMARKS
CAPE GIRARDEAU MOSUNNY   71  52  50 S12       30.12F
FARMINGTON     LGT RAIN  64  60  87 S9        30.10R
POPLAR BLUFF   CLOUDY    72  55  55 S9        30.11S
WEST PLAINS    CLOUDY    66  61  84 S8G17     30.08F

$$



USA.gov is the U.S. government's official web portal to all federal, state and local government web resources and services.